SPMAL EPMO-RPLB

Flight info

Callsign SPMAL
Flight time N/A
Altitude 10000
Route DCT XIMBA DCT VENES
Aircraft PA30/L-SABDGY/C

Departure

Time 2026-04-12 10:07
Airport Warsaw Modlin Airport (EPMO)

Arrival

Time N/A
Airport Subic Bay International Airport / Naval Air Station Cubi Point (RPLB)
Time Latitude Longitude Altitude Speed Heading
2026-04-12 09:46 52.44887 20.66623 332 ft 0 kts 351°
2026-04-12 09:56 52.44888 20.66623 332 ft 1 kts 351°
2026-04-12 09:56 52.44890 20.66622 332 ft 0 kts 349°
2026-04-12 09:57 52.44893 20.66621 332 ft 4 kts 340°
2026-04-12 09:57 52.44904 20.66482 332 ft 18 kts 264°
2026-04-12 09:57 52.44885 20.66264 332 ft 21 kts 262°
2026-04-12 09:58 52.44862 20.66015 331 ft 24 kts 262°
2026-04-12 09:58 52.44836 20.65736 329 ft 26 kts 259°
2026-04-12 09:58 52.44809 20.65447 332 ft 26 kts 261°
2026-04-12 09:58 52.44783 20.65158 332 ft 26 kts 261°
2026-04-12 09:59 52.44755 20.64870 332 ft 26 kts 260°
2026-04-12 09:59 52.44727 20.64583 332 ft 25 kts 260°
2026-04-12 09:59 52.44695 20.64299 332 ft 25 kts 264°
2026-04-12 09:59 52.44673 20.64026 332 ft 23 kts 262°
2026-04-12 10:00 52.44651 20.63774 332 ft 22 kts 261°
2026-04-12 10:00 52.44628 20.63541 332 ft 18 kts 262°
2026-04-12 10:00 52.44708 20.63437 332 ft 16 kts 351°
2026-04-12 10:00 52.44732 20.63431 331 ft 0 kts 351°
2026-04-12 10:02 52.44756 20.63425 331 ft 13 kts 353°
2026-04-12 10:02 52.44846 20.63405 332 ft 12 kts 354°
2026-04-12 10:02 52.44927 20.63405 332 ft 11 kts 22°
2026-04-12 10:02 52.44962 20.63491 331 ft 0 kts 78°
2026-04-12 10:06 52.44964 20.63501 332 ft 12 kts 79°
2026-04-12 10:06 52.45016 20.64046 333 ft 78 kts 81°
2026-04-12 10:06 52.45116 20.65066 473 ft 96 kts 79°
2026-04-12 10:06 52.45226 20.66144 812 ft 95 kts 82°
2026-04-12 10:07 52.45302 20.67147 1249 ft 89 kts 84°
2026-04-12 10:07 52.45400 20.68177 1697 ft 92 kts 83°
2026-04-12 10:07 52.45469 20.69175 2150 ft 89 kts 87°
2026-04-12 10:07 52.45512 20.70250 2457 ft 94 kts 84°
2026-04-12 10:08 52.45563 20.71271 2797 ft 94 kts 85°
2026-04-12 10:08 52.45609 20.72365 3211 ft 96 kts 78°
2026-04-12 10:08 52.45712 20.73429 3646 ft 93 kts 81°
2026-04-12 10:08 52.45832 20.74513 3941 ft 102 kts 84°
2026-04-12 10:09 52.45860 20.75607 4400 ft 92 kts 86°
2026-04-12 10:09 52.45925 20.76743 4670 ft 99 kts 82°
2026-04-12 10:09 52.46007 20.77841 5090 ft 96 kts 82°
2026-04-12 10:09 52.46082 20.78955 5380 ft 101 kts 81°
2026-04-12 10:10 52.46153 20.80092 5750 ft 97 kts 83°
2026-04-12 10:10 52.46209 20.81237 6002 ft 103 kts 84°
2026-04-12 10:10 52.46241 20.82384 6338 ft 101 kts 86°
2026-04-12 10:10 52.46272 20.83571 6602 ft 105 kts 88°
2026-04-12 10:11 52.46015 20.84692 6825 ft 115 kts 132°
2026-04-12 10:11 52.45284 20.85186 7108 ft 117 kts 182°
2026-04-12 10:11 52.44481 20.85044 7342 ft 116 kts 179°
2026-04-12 10:11 52.43670 20.84833 7557 ft 123 kts 205°
2026-04-12 10:12 52.42856 20.84829 7777 ft 120 kts 145°
2026-04-12 10:12 52.42302 20.85805 8040 ft 109 kts 120°
2026-04-12 10:12 52.41765 20.86712 8168 ft 121 kts 139°
2026-04-12 10:12 52.41087 20.87551 8283 ft 128 kts 138°
2026-04-12 10:13 52.40391 20.88464 8276 ft 130 kts 139°
2026-04-12 10:13 52.39664 20.89341 8283 ft 132 kts 142°
2026-04-12 10:13 52.38863 20.90113 8325 ft 133 kts 150°
2026-04-12 10:13 52.38000 20.90688 8328 ft 135 kts 160°
2026-04-12 10:14 52.37110 20.91147 8354 ft 133 kts 159°
2026-04-12 10:14 52.36233 20.91662 8294 ft 138 kts 158°
2026-04-12 10:14 52.35328 20.92173 8318 ft 136 kts 160°
2026-04-12 10:14 52.34428 20.92601 8338 ft 135 kts 162°
2026-04-12 10:15 52.33521 20.93030 8316 ft 136 kts 161°
2026-04-12 10:15 52.32698 20.93766 8315 ft 136 kts 140°
2026-04-12 10:15 52.32209 20.94391 8392 ft 133 kts 140°
2026-04-12 10:15 52.31489 20.95323 8417 ft 134 kts 136°
2026-04-12 10:16 52.30719 20.96331 8302 ft 142 kts 142°
2026-04-12 10:16 52.29914 20.97230 8305 ft 144 kts 143°
2026-04-12 10:16 52.29080 20.98159 8231 ft 144 kts 142°
2026-04-12 10:16 52.28287 20.99133 8220 ft 143 kts 136°
2026-04-12 10:17 52.27510 21.00147 8191 ft 142 kts 142°
2026-04-12 10:17 52.26715 21.01037 8271 ft 135 kts 143°
2026-04-12 10:17 52.25932 21.01928 8241 ft 140 kts 139°
2026-04-12 10:17 52.25206 21.02976 8205 ft 140 kts 132°
2026-04-12 10:18 52.24462 21.03952 8260 ft 138 kts 140°
2026-04-12 10:18 52.23663 21.04928 8137 ft 145 kts 142°
2026-04-12 10:18 52.22879 21.05774 8311 ft 133 kts 146°
2026-04-12 10:18 52.22080 21.06549 8356 ft 133 kts 146°
2026-04-12 10:19 52.21244 21.07217 8383 ft 135 kts 153°
2026-04-12 10:19 52.20401 21.07919 8394 ft 136 kts 150°
2026-04-12 10:19 52.19579 21.08637 8514 ft 129 kts 150°
2026-04-12 10:19 52.18736 21.09273 8649 ft 139 kts 157°
2026-04-12 10:20 52.17864 21.09833 8929 ft 132 kts 154°
2026-04-12 10:20 52.17071 21.10556 9076 ft 135 kts 145°
2026-04-12 10:20 52.16284 21.11400 9261 ft 135 kts 141°